Content
SEND FEEDBACK

Daily
Averages
Monthly
Summary
United States of America

ELBA, ALABAMA


Home > North America > United States > Alabama
Elevation: 20 feet     Latitude: 31 25N     Longitude: 086 04W

WEATHER
 
SELECT A DAY
Number of Records: 63,372;   Date Range: 2/10/98 - 8/12/14
 
SHARE

PRINT THIS DATA

[ ← Previous Day ]
WEATHER ALMANAC - JANUARY 31, 2013
[ Next Day → ]
[ °C ]   °F
Weather ElementAverageHighLow
Temperature45 °F55.9 °F (1:53 pm)33.1 °F (11:53 pm)
Dewpoint27 °F33.1 °F (7:53 pm)21 °F (12:53 pm)
Humidity54 %89 % (9:53 pm)26 % (1:53 pm)
Barometer30.19 in30.29 in (11:53 pm)30.06 in (1:53 am)
Wind Speed6.6 mph16.1 mph (11:34 am)
Wind Gust26.5 mph (11:34 am)
Weather ElementAverage
Visibility10 mi
Wind DirectionSW (222 °)

Weather ElementTotal
Precipitation---
Heating Degree Days20.5 (Base 65)
Averaged from 25 records on January 31, 2013
WEATHER CONDITIONS BREAKOUT
WIND DIRECTION BREAKOUT
WEATHER BY HOUR - JANUARY 31, 2013
[ °C ]   °F
Local TimeTemperatureDewpointHumidityBarometerVisibilityWind DirectionWind SpeedGust SpeedPrecipitationEventsConditions
1:53 AM42.1 °F28.9 °F60 %30.06 in10.0 miNW (310°)5.8 mphClear
2:53 AM41.0 °F28.9 °F62 %30.09 in10.0 miWNW (300°)6.9 mphClear
3:53 AM39.9 °F28.0 °F63 %30.10 in10.0 miWNW (300°)5.8 mphClear
4:53 AM39.0 °F28.0 °F65 %30.10 in10.0 miNNW (330°)10.4 mphClear
5:53 AM37.9 °F27.0 °F65 %30.11 in10.0 miNNW (330°)6.9 mphClear
6:53 AM37.0 °F28.0 °F70 %30.14 in10.0 miCalmClear
7:53 AM41.0 °F30.0 °F65 %30.17 in10.0 miNW (310°)6.9 mphClear
8:53 AM44.1 °F28.0 °F53 %30.19 in10.0 miNNW (330°)13.8 mph21.9 mphClear
9:13 AM46.4 °F26.6 °F46 %30.20 in10.0 miNW (320°)11.5 mph18.4 mphPartly Cloudy
9:53 AM48.0 °F26.1 °F42 %30.22 in10.0 miNW (320°)6.9 mph20.7 mphClear
10:53 AM51.1 °F24.1 °F35 %30.22 in10.0 miNNW (330°)12.7 mph20.7 mphClear
11:34 AM51.8 °F21.2 °F30 %30.22 in10.0 miNorth (350°)16.1 mph26.5 mphPartly Cloudy
11:53 AM54.0 °F23.0 °F30 %30.21 in10.0 miNNW (340°)11.5 mph19.6 mphPartly Cloudy
12:53 PM55.0 °F21.0 °F27 %30.19 in10.0 miNW (320°)13.8 mph20.7 mphClear
1:53 PM55.9 °F21.0 °F26 %30.18 in10.0 miNorth (360°)9.2 mph19.6 mphClear
2:53 PM55.9 °F21.0 °F26 %30.17 in10.0 miNorth (350°)11.5 mph16.1 mphClear
3:53 PM55.9 °F21.9 °F27 %30.18 in10.0 miNNW (330°)10.4 mphClear
4:53 PM54.0 °F23.0 °F30 %30.19 in10.0 miNW (320°)5.8 mphClear
5:53 PM48.9 °F26.1 °F41 %30.21 in10.0 miCalmClear
6:53 PM42.1 °F30.9 °F65 %30.23 in10.0 miCalmClear
7:53 PM41.0 °F33.1 °F73 %30.25 in10.0 miCalmClear
8:53 PM37.9 °F33.1 °F83 %30.26 in10.0 miCalmClear
9:53 PM36.0 °F33.1 °F89 %30.26 in10.0 miCalmClear
10:53 PM35.1 °F32.0 °F89 %30.27 in10.0 miCalmClear
11:53 PM33.1 °F30.0 °F89 %30.29 in10.0 miCalmClear
Hourly data recorded from KLOR, located miles away from Elba, Alabama







STORIES FROM OUR PARTNERS